Regional Weather Roundup
Issued by NWS

Home | Current Version | Previous Version | Graphics & Text | Print | Product List | Glossary Off
Versions: 1 2 3 4 5 6 7 8 9 10 11 12 13 14 15 16 17 18 19 20 21 22 23 24 25 26 27 28 29 30 31 32 33 34 35 36 37 38 39 40 41 42 43 44 45 46 47 48 49 50

756
ASUS43 KMKX 211010
RWRWI

WISCONSIN REGIONAL WEATHER ROUNDUP
NATIONAL WEATHER SERVICE MILWAUKEE/SULLIVAN WI
400 AM CST SUN JAN 21 2018

NOTE: "FAIR" INDICATES FEW OR NO CLOUDS BELOW 12,000 FEET WITH NO
SIGNIFICANT WEATHER AND/OR OBSTRUCTIONS TO VISIBILITY.

WIZ001-002-006>008-014>016-023>028-211100-
NORTHWEST WISCONSIN

CITY           SKY/WX    TMP DP  RH WIND       PRES   REMARKS
SUPERIOR ARPT  FAIR      28  26  93 CALM      29.96F
ASHLAND        FAIR      29  27  92 W6        29.95F WCI  23
HAYWARD        FAIR      26  23  88 CALM      29.95S
SIREN          FAIR      29  28  96 CALM      29.95F
CUMBERLAND     CLOUDY    32  30  93 CALM      29.94S
RICE LAKE      CLOUDY    31  30  96 CALM      29.96S FOG
CHETEK         CLOUDY    30  28  93 CALM      29.95S
LADYSMITH      CLOUDY    32  31  95 CALM      29.95S
EAU CLAIRE     CLOUDY    27  27 100 CALM      29.94F FOG
MENOMONIE      CLOUDY    29  29  97 NW3       29.96S FOG
NEW RICHMOND   CLOUDY    31  30  96 CALM      29.96S
OSCEOLA        CLOUDY    32  32 100 CALM      29.98F
$$

WIZ003>005-009-010-017-018-211100-
NORTH CENTRAL WISCONSIN

CITY           SKY/WX    TMP DP  RH WIND       PRES   REMARKS
MANITOWISH WTR FAIR      24  24 100 CALM      29.92S
ARBOR VITAE    CLOUDY    29  28  95 CALM      29.92S FOG
WOODRUFF       CLOUDY    29  28  95 CALM      29.92S FOG
RHINELANDER    MOCLDY    32  30  92 CALM      29.92F
EAGLE RIVER    FAIR      26  26 100 CALM      29.92S FOG
LAND O LAKES   CLOUDY    24  24  97 CALM      29.93F
PHILLIPS       CLOUDY    29  29 100 CALM      29.92F
TOMAHAWK       CLOUDY    30  28  93 CALM      29.93F
MEDFORD        CLOUDY    30  28  94 CALM      29.92F
MERRILL        CLOUDY    30  30  98 CALM      29.94F
$$

WIZ029-030-035-036-043>047-211100-
CENTRAL WISCONSIN

CITY           SKY/WX    TMP DP  RH WIND       PRES   REMARKS
WAUSAU         CLOUDY    30  29  96 CALM      29.92S
MOSINEE        FAIR      30  30 100 CALM      29.94F
MARSHFIELD     FAIR      29  27  92 CALM      29.92S FOG
STEVENS POINT  FAIR      24  24 100 CALM      29.94S FOG
WAUPACA        FAIR      28  26  94 CALM      29.95S FOG
WAUTOMA        FAIR      22  20  92 CALM      29.95S
WISC RAPIDS    FOG       26  23  88 CALM      29.95R VSB 1/2
CAMP DOUGLAS   FAIR      20  19  98 CALM      29.93S VSB 3/8
$$

WIZ011>013-019>022-031-037>040-048>050-211100-
NORTHEAST WISCONSIN

CITY           SKY/WX    TMP DP  RH WIND       PRES   REMARKS
ANTIGO         CLOUDY    28  27  99 NE3       29.93F
SHAWANO        CLOUDY    32  29  90 CALM      29.95S
OCONTO         FAIR      29  28  94 CALM      29.96S
STURGEON BAY   FAIR      30  28  92 SE3       29.97S
GREEN BAY      FAIR      29  27  92 CALM      29.95F FOG
MANITOWOC      FAIR      25  24  96 CALM      29.97F FOG
APPLETON       FAIR      28  28 100 CALM      29.93S FOG
CLINTONVILLE   CLOUDY    28  28 100 CALM      29.94F FOG
OSHKOSH        FAIR      27  26  96 S3        29.94S FOG
$$

WIZ032>034-041-042-053>061-211100-
SOUTHWEST WISCONSIN

CITY           SKY/WX    TMP DP  RH WIND       PRES   REMARKS
LA CROSSE      FOG       23  21  92 CALM      29.95S VSB 1/4
SPARTA         FAIR      21  20  98 CALM      29.95S
VIROQUA        FAIR      32  32  99 S5        29.92S WCI  28
BOSCOBEL       FAIR      24  21  88 CALM      29.96S FOG
PRAIRIE DU CHI FAIR      27  26  95 CALM      29.95S FOG
PLATTEVILLE    FAIR      33  33 100 CALM      29.94S
$$

WIZ056-057-062-063-064-067-068-211100-
SOUTH CENTRAL WISCONSIN

CITY           SKY/WX    TMP DP  RH WIND       PRES   REMARKS
REEDSBURG      FAIR      24  24 100 CALM      29.94S FOG
BARABOO/DELLS  FOG       25  24  97 CALM      29.93F VSB 3/4
LONE ROCK      MOCLDY    26  25  96 CALM      29.95S FOG
MINERAL POINT  FOG       32  32 100 S6        29.94R VSB 1/4 WCI  26
MADISON        FAIR      27  25  92 CALM      29.95S FOG
MIDDLETON      FAIR      28  28 100 CALM      29.94S
WATERTOWN      FAIR      27  27 100 CALM      29.94F FOG
MONROE         CLOUDY    32  32 100 SE3       29.94F FOG
JANESVILLE     CLOUDY    32  32 100 CALM      29.95F FOG
$$

WIZ051-052-058>065-066-070>072-211100-
SOUTHEAST WISCONSIN

CITY           SKY/WX    TMP DP  RH WIND       PRES   REMARKS
MILWAUKEE      FOG       30  29  96 CALM      29.97S VSB 3/4
WAUKESHA       CLOUDY    30  30 100 S3        29.97S FOG
MILWAUKEE/TIMM CLOUDY    32  30  93 CALM      29.97F FOG
RACINE         CLOUDY    37  35  92 S6        29.98F FOG     WCI  32
BURLINGTON       N/A     32  30  95 CALM      29.96F FOG
KENOSHA        CLOUDY    38  35  89 S6        29.97F FOG     WCI  33
FOND DU LAC    FAIR      26  23  88 CALM      29.94F FOG
SHEBOYGAN      FAIR      24  23  96 CALM      29.96S FOG
WEST BEND      FAIR      27  27 100 CALM      29.95F
JUNEAU         FOG       29  29  99 CALM      29.96S VSB<1/4
$$

LSZ147-162-211100-
LAKE SUPERIOR

STATION/POSITION TIME  TEMP    WIND        PRES    WAVE
                       AIR SEA DIR/SP/G            HT/PER
                 (UTC) (F)     (DEG/KT/KT) (MB)    (FT/S)
DEVILS ISLAND    1000   30      60/  3/  3 1015.5R
SAXON HARBOR     0940   29     160/  2/  3 1014.2R
$$

LMZ867-665-643>646-211100-
LAKE MICHIGAN

STATION/POSITION TIME  TEMP    WIND        PRES    WAVE
                       AIR SEA DIR/SP/G            HT/PER
                 (UTC) (F)     (DEG/KT/KT) (MB)    (FT/S)
NORTHPORT PIER   0940   33        CALM     1014.6S
KEWAUNEE LAKESHO 0942   27     250/  2/  2 1013.8F
SHEBOYGAN LAKESH 1000   34     200/  3/  3 1015.1F
PORT WASHINGTON  0930   30     290/  1/  2 1015.9S
MILWAUKEE LAKESH 0950   35     160/  2/  2   N/A
KENOSHA   LAKESH 1000   34     190/  8/  9 1015.2
$$

TC  - TEMPERATURE IN CELSIUS
VSB - VISIBILITY IN STATUTE MILES
WCI - WIND CHILL INDEX
HX  - HEAT INDEX





USA.gov is the U.S. government's official web portal to all federal, state and local government web resources and services.